Regional Weather Roundup
Issued by NWS

Home | Current Version | Previous Version | Graphics & Text | Print | Product List | Glossary On
Versions: 1 2 3 4 5 6 7 8 9 10 11 12 13 14 15 16 17 18 19 20 21 22 23 24 25 26 27 28 29 30 31 32 33 34 35 36 37 38 39 40 41 42 43 44 45 46
000
ASUS43 KDMX 210907
RWRIA

WEATHER ROUNDUP FOR IOWA
NATIONAL WEATHER SERVICE DES MOINES IA
400 AM CDT THU AUG 21 2014

NOTE: "FAIR" INDICATES FEW OR NO CLOUDS BELOW 12,000 FEET WITH NO
SIGNIFICANT WEATHER AND/OR OBSTRUCTIONS TO VISIBILITY.

* - THESE STATIONS ARE NOT NWS STATIONS...THUS NOT UNDER NWS
QUALITY CONTROL.  THEY ALSO DO NOT REPORT WEATHER SUCH
AS PRECIPITATION OR FOG.

IAZ001>003-012>014-020>022-031>034-043>046-211000-
   NORTHWEST IOWA

CITY           SKY/WX    TMP DP  RH WIND       PRES   REMARKS
CARROLL *      MOCLDY    77  72  83 S14       29.79S
CHEROKEE *     CLOUDY    75  73  94 S15G22    29.72F
DENISON *      CLOUDY    77  72  83 S9        29.76F
LE MARS *      CLEAR     77  72  83 S14G21    29.70F
ORANGE CITY *  CLEAR     79  72  78 S12       29.70F HX  82
SHELDON *      CLOUDY    75  73  94 S14G22    29.69F
SIOUX CITY     MOCLDY    78  72  81 S7        29.71S HX  80
SPENCER        PTCLDY    75  71  87 S20G25    29.68F
STORM LAKE *   MOCLDY    75  75 100 S13G18    29.76F
$$

IAZ055>058-069>071-079>083-090>094-211000-
   SOUTHWEST IOWA

CITY           SKY/WX    TMP DP  RH WIND       PRES   REMARKS
ATLANTIC *     MOCLDY    77  70  78 S13       29.80S
AUDUBON *      CLEAR     79  73  83 S13       29.82S HX  82
CLARINDA *     CLEAR     75  70  83 S9        29.83F
COUNCIL BLFS *   N/A     79  70  73 MISG      29.78F HX  81
CRESTON *      PTCLDY    75  70  83 S15       29.85F
HARLAN  *      PTCLDY    77  70  78 S12       29.82F
LAMONI         CLEAR     75  69  81 S10       29.87S
RED OAK *      MOCLDY    77  70  78 S10       29.81S
SHENANDOAH *   PTCLDY    77  70  78 S8G14     29.81F
$$

IAZ047>049-059>061-072>074-084-211000-
   CENTRAL IOWA

CITY           SKY/WX    TMP DP  RH WIND       PRES   REMARKS
AMES           MOCLDY    73  72  96 S6        29.82F
ANKENY *       CLEAR     73  72  94 S7        29.83R
CHARITON *     CLEAR     75  70  83 S9        29.86S
DES MOINES     MOCLDY    77  71  82 S8        29.83R
GRINNELL*      CLOUDY    73  72  94 S7        29.86F
KNOXVILLE *    CLEAR     77  70  78 S9G16     29.84S
MARSHALLTOWN   CLOUDY    73  72  96 SE8       29.83F
PELLA *        PTCLDY    75  72  88 S7        29.86S
PERRY *          N/A     73  72  94 S8        29.81F
$$

IAZ004>006-015-016-023>025-035-036-211000-
   NORTH CENTRAL IOWA

CITY           SKY/WX    TMP DP  RH WIND       PRES   REMARKS
ALGONA *       PTCLDY    73  72  94 SE13G18   29.75F
CLARION *      CLEAR     72  72 100 SE9       29.80F
ESTHERVILLE    CLOUDY    72  71  97 S16G30    29.69F
FORT DODGE *   PTCLDY    75  72  88 S12G17    29.79F
MASON CITY     CLOUDY    70  70 100 SE10      29.82F FOG
FOREST CITY *  MOCLDY    70  70 100 SE10      29.79F
IOWA FALLS *     N/A     72  70  94 SE6       29.84S
$$

IAZ007>011-017>019-026>030-037>042-050>054-066-211000-
   NORTHEAST IOWA

CITY           SKY/WX    TMP DP  RH WIND       PRES   REMARKS
CEDAR RAPIDS   CLOUDY    71  71 100 SE7       29.86F FOG
CHARLES CITY * CLOUDY    70  68  94 SE8       29.85S
CLINTON *      CLOUDY    72  68  88 SE8       29.92F
DECORAH *      CLEAR     70  68  94 SE3       29.86F
DUBUQUE        CLOUDY    71  68  90 SE10      29.90F
MONTICELLO *   PTCLDY    70  70 100 VRB5      29.87F
OELWEIN *      PTCLDY    70  70 100 SE9       29.86F FOG
WATERLOO       MOCLDY    71  69  93 SE8       29.84F
$$

IAZ064-065-067-068-078-211000-
   EAST CENTRAL IOWA

CITY           SKY/WX    TMP DP  RH WIND       PRES   REMARKS
DAVENPORT      MOCLDY    71  69  93 SE6       29.90F
IOWA CITY      CLOUDY    71  71 100 SE3       29.89S
MT. PLEASANT * CLEAR     73  70  88 S8        29.90S
MUSCATINE *    FOG       68  68 100 CALM      29.89S VSB 1/4
QUAD CITIES    MOCLDY    71  69  93 E5        29.89F
$$

IAZ062-063-075>077-085>089-095>099-211000-
   SOUTHEAST IOWA

CITY           SKY/WX    TMP DP  RH WIND       PRES   REMARKS
BURLINGTON     CLEAR     74  71  91 S8        29.91S
FAIRFIELD *    PTCLDY    75  72  88 S7        29.89S
FORT MADISON * CLEAR     75  72  88 S8        29.92S
KEOKUK *       CLEAR     73  72  94 S9        29.91S
OSKALOOSA *      N/A     73  72  94 S5        29.87S
CENTERVILLE *  CLEAR     75  72  88 S7        29.90S
OTTUMWA        PTCLDY    75  71  87 S6        29.87S
WASHINGTON *   CLEAR     73  73 100 S8        29.89R
$$

ABBREVIATIONS USED IN REMARKS
   TC - TEMPERATURES IN CELSIUS
  WCI - WIND CHILL INDEX
   HX - HEAT INDEX
  VSB - VISIBILITY
$$



USA.gov is the U.S. government's official web portal to all federal, state and local government web resources and services.